Fort Leonard Wood, MO

8:59 PM CDT on October 22, 2019 (GMT -0500)
Waynesville Regional At Forney Field

Weather History for KTBN - May, 2019

Change the Weather History Date:

Friday, May 10, 2019

  Actual Average Record
Temperature  
Mean Temperature 51 °F -  
Max Temperature 60 °F 73 °F 87 °F (2005)
Min Temperature 43 °F 55 °F 42 °F (1997)
Degree Days  
Heating Degree Days 14    
Growing Degree Days 1 (Base 50)    
Moisture  
Dew Point 41 °F    
Average Humidity 74    
Maximum Humidity 90    
Minimum Humidity 54    
Precipitation  
Precipitation 0.00 in - - ()
Sea Level Pressure  
Sea Level Pressure 30.14 in    
Wind  
Wind Speed 6 mph (North)    
Max Wind Speed 14 mph    
Max Gust Speed -    
Visibility 10 miles    
Events      
Averages and records for this station are not official NWS values.
T = Trace of Precipitation, MM = Missing Value Source: NWS Daily Summary

Daily Weather History Graph

Daily Weather History Graph

Search for Another Location

Airport or City:

Astronomy

May. 10, 2019 Rise Set
Actual Time 6:03 AM CDT 8:06 PM CDT
Civil Twilight 5:34 AM CDT 8:35 PM CDT
Nautical Twilight 4:59 AM CDT 9:11 PM CDT
Astronomical Twilight 4:21 AM CDT 9:49 PM CDT
Moon 11:04 AM CDT (5/10) 12:59 AM CDT (5/10)
Length of Visible Light 15h 01m
Length of Day
14h 03m
Waxing Crescent, 35% of the Moon is Illuminated
May 10
Waxing Crescent
May 11
First Quarter
May 18
Full
May 26
Last Quarter
Jun 3
New

Hourly Weather History & Observations

Time (CDT) Temp. Windchill Dew Point Humidity Pressure Visibility Wind Dir Wind Speed Gust Speed Precip Events Conditions
12:56 AM 46.2 °F 45.0 °F 41.0 °F 82% 30.10 in 10.0 mi WNW 3.5 mph - N/A   Overcast
1:56 AM 46.2 °F 45.0 °F 41.4 °F 83% 30.10 in 10.0 mi WNW 3.5 mph - N/A   Overcast
2:56 AM 46.0 °F 42.5 °F 41.7 °F 85% 30.09 in 10.0 mi NW 6.9 mph - N/A   Overcast
3:56 AM 45.9 °F 42.9 °F 40.6 °F 82% 30.10 in 10.0 mi NNW 5.8 mph - N/A   Overcast
4:56 AM 45.1 °F 42.0 °F 40.6 °F 84% 30.12 in 10.0 mi NNW 5.8 mph - N/A   Overcast
5:06 AM 44.6 °F 41.4 °F 41.0 °F 87% 30.12 in 10.0 mi NNW 5.8 mph - N/A   Overcast
5:26 AM 44.6 °F 41.4 °F 41.0 °F 87% 30.12 in 10.0 mi NW 5.8 mph - N/A   Overcast
5:56 AM 44.1 °F 40.8 °F 40.8 °F 88% 30.13 in 10.0 mi NW 5.8 mph - N/A   Scattered Clouds
6:26 AM 44.6 °F 43.1 °F 41.0 °F 87% 30.15 in 10.0 mi NW 3.5 mph - N/A   Mostly Cloudy
6:46 AM 44.6 °F 42.2 °F 41.0 °F 87% 30.15 in 10.0 mi NW 4.6 mph - N/A   Scattered Clouds
6:56 AM 43.9 °F 42.3 °F 41.2 °F 90% 30.15 in 10.0 mi NW 3.5 mph - N/A   Partly Cloudy
7:56 AM 46.4 °F 42.4 °F 41.9 °F 84% 30.18 in 10.0 mi NW 8.1 mph - N/A   Partly Cloudy
8:51 AM 48.2 °F - 39.2 °F 71% 30.18 in 10.0 mi North 9.2 mph - N/A   Mostly Cloudy
8:56 AM 48.0 °F - 39.4 °F 72% 30.18 in 10.0 mi North 8.1 mph - N/A   Mostly Cloudy
9:01 AM 48.2 °F - 39.2 °F 71% 30.18 in 10.0 mi North 6.9 mph - N/A   Mostly Cloudy
9:56 AM 48.7 °F - 39.4 °F 70% 30.16 in 10.0 mi North 6.9 mph - N/A   Overcast
10:56 AM 50.4 °F - 39.4 °F 66% 30.16 in 10.0 mi North 9.2 mph - N/A   Overcast
11:56 AM 50.4 °F - 39.4 °F 66% 30.19 in 10.0 mi NNW 9.2 mph - N/A   Overcast
12:57 PM 50.4 °F - 39.4 °F 66% 30.21 in 10.0 mi North 5.8 mph - N/A   Mostly Cloudy
1:55 PM 51.8 °F - 39.2 °F 62% 30.21 in 10.0 mi North 6.9 mph - N/A   Mostly Cloudy
2:55 PM 51.8 °F - 39.2 °F 62% 30.21 in 10.0 mi NE 13.8 mph - N/A   Mostly Cloudy
3:56 PM - - - N/A% - 10.0 mi NE 8.1 mph - N/A   Scattered Clouds
4:56 PM 59.5 °F - 42.8 °F 54% 30.10 in - NE 5.8 mph - N/A   Unknown
5:56 PM 59.5 °F - 42.8 °F 54% 30.10 in 10.0 mi East 8.1 mph - N/A   Scattered Clouds
6:56 PM 58.1 °F - 42.4 °F 56% 30.12 in 10.0 mi East 6.9 mph - N/A   Clear
7:56 PM 55.2 °F - 42.4 °F 62% 30.13 in 10.0 mi East 3.5 mph - N/A   Clear
8:56 PM 52.3 °F - 42.4 °F 69% 30.14 in 10.0 mi East 4.6 mph - N/A   Clear
9:57 PM 50.7 °F - 42.4 °F 73% 30.12 in 10.0 mi East 5.8 mph - N/A   Clear
10:56 PM 49.3 °F - 42.8 °F 78% 30.10 in 10.0 mi ESE 4.6 mph - N/A   Clear
11:56 PM 48.6 °F - 42.3 °F 79% 30.07 in 10.0 mi East 5.8 mph - N/A   Clear